Weather Roundup
Issued by NWS Corpus Christi, TX

Home | Current Version | Previous Version | Text Only | Print | Product List | Glossary On
Versions: 1 2 3 4 5 6 7 8 9 10 11 12 13 14 15 16 17 18 19 20 21 22 23 24 25 26 27 28 29 30 31 32 33 34 35 36 37 38 39 40 41 42 43 44 45 46 47 48 49 50
000
ASUS44 KCRP 232210
HRRCRP

SOUTH TEXAS REGIONAL WEATHER ROUNDUP
NATIONAL WEATHER SERVICE CORPUS CHRISTI TX
500 PM CDT WED APR 23 2014


TXZ229>244-232300-
...CORPUS CHRISTI AREA OBSERVATIONS...

CITY           SKY/WX    TMP DP  RH WIND       PRES   REMARKS
CORPUS CHRISTI MOSUNNY   83  62  49 SE20G30   29.81F
NAS CORPUS CHR MOSUNNY   79  69  71 SE22      29.82F
ROCKPORT       PTSUNNY   80  69  69 SE16      29.84S
KINGSVILLE NAS MOSUNNY   85  63  47 SE20G26   29.79F
ALICE          SUNNY     87  64  46 SE20G26   29.77F
FALFURRIAS       N/A     88  64  44 SE17G23   29.75F
$$

...VICTORIA AREA OBSERVATIONS...

CITY           SKY/WX    TMP DP  RH WIND       PRES   REMARKS
VICTORIA       PTSUNNY   84  63  49 SE17G25   29.83F
BEEVILLE       FAIR      87  60  40 SE20G25   29.79F
PLEASANTON     MOSUNNY   91  59  34 SE15G23   29.75F
SAN ANTONIO    MOSUNNY   89  61  38 SE17G30   29.76F
$$

...LAREDO AREA OBSERVATIONS...

CITY           SKY/WX    TMP DP  RH WIND       PRES   REMARKS
LAREDO         SUNNY     93  64  38 SE20G25   29.74F HX  94
COTULLA        SUNNY     91  60  35 SE17G23   29.72F HX  90
DEL RIO        PTSUNNY   90  56  31 SE15      29.68F
MCALLEN        MOSUNNY   85  65  51 SE20G28   29.78F
HEBBRONVILLE   MOSUNNY   89  63  42 SE16G23   29.76F
$$

...OTHER TEXAS OBSERVATIONS...

CITY           SKY/WX    TMP DP  RH WIND       PRES   REMARKS
BROWNSVILLE    SUNNY     83  64  52 SE18G25   29.81F
HOUSTON        MOSUNNY   82  64  54 SE16      29.85F
COL. STATION   MOSUNNY   83  61  47 SE17G23   29.82F
AUSTIN         MOSUNNY   84  63  49 S14G24    29.78F
WACO           SUNNY     85  57  38 S15G25    29.78F
FORT WORTH     PTSUNNY   85  58  39 S20G26    29.76F
WICHITA FALLS  PTSUNNY   85  57  38 S22G28    29.67F
LUBBOCK        CLOUDY    89  30  12 SW30G37   29.66F
EL PASO        MOSUNNY   86  15   7 SW22G36   29.77F
$$

...MARINE OBSERVATIONS...

STATION/POSITION TIME  SKY/WX   TEMP    WIND        PRES    VSBY  WAVE   SWELL
                                AIR SEA DIR/SP/G                  HT/PER HT/PER
                 (UTC)          (F)     (DEG/KT/KT) (MB)    (MI)  (FT/S) (FT/S)
PORT ARANSAS     2200            72 76  120/ 15/ 17 1010.4F
BUOY 90 E PORT A NOT AVBL
BUOY 45 SE BAFFI 2200            72 72  130/ 12/ 14 1010.3F         2/ 3
BUOY 200 E PT IS NOT AVBL
BUOY 15 E GALVES 2200            71 72  140/ 10/ 12 1012.1F         1/ 4
$$



USA.gov is the U.S. government's official web portal to all federal, state and local government web resources and services.